Regional Weather Roundup
Issued by NWS

Home | Current Version | Previous Version | Graphics & Text | Print | Product List | Glossary On
Versions: 1 2 3 4 5 6 7 8 9 10 11 12 13 14 15 16 17 18 19 20 21 22 23 24 25 26 27 28 29 30 31 32 33 34 35 36 37 38 39 40 41 42 43 44 45 46 47 48 49 50
944
ASUS44 KMEG 241310
RWRTN
TENNESSEE HOURLY STATE WEATHER ROUNDUP
NATIONAL WEATHER SERVICE MEMPHIS TN
800 AM CDT SUN SEP 24 2017

TNZ002-004-019-021-049-052-054-088>092-241400-
WEST TENNESSEE

CITY           SKY/WX    TMP DP  RH WIND       PRES   REMARKS
MEMPHIS INTL   SUNNY     75  69  81 E3        30.02R
NWS MEMPHIS      N/A     70 N/A N/A MISG        N/A
JACKSON        SUNNY     72  71  97 CALM      30.04S
DYERSBURG      SUNNY     72  70  93 CALM      30.04R
SOMERVILLE     SUNNY     70  70 100 CALM      30.03R
COVINGTON      SUNNY     70  68  94 CALM      30.03R FOG
BOLIVAR        SUNNY     70  68  94 CALM      30.04R
PARIS          SUNNY     72  70  94 CALM      30.05R
HUNTINGDON     SUNNY     72  70  94 CALM      30.05R FOG
LEXINGTON      SUNNY     68  68 100 CALM      30.05S FOG
SELMER         MOSUNNY   72  68  88 CALM      30.05R
SAVANNAH       SUNNY     70  68  94 CALM      30.04S
$$

TNZ008-025-027-028-033-062-065-066-241400-
NORTH MIDDLE TENNESSEE

CITY           SKY/WX    TMP DP  RH WIND       PRES   REMARKS
NASHVILLE      MOSUNNY   71  69  93 CALM      30.08R
PORTLAND       SUNNY     68  66  94 CALM      30.07S
CLARKSVILLE    SUNNY     70  66  87 CALM      30.06S FOG
SMYRNA         MOSUNNY   69  66  89 CALM      30.09R
COOKEVILLE     SUNNY     66  66 100 CALM      30.09S
GALLATIN       SUNNY     68  66  94 CALM      30.10S
CROSSVILLE     SUNNY     66  64  93 CALM      30.15S
$$

TNZ061-075-076-078-094-096-097-241400-
SOUTH MIDDLE TENNESSEE

CITY           SKY/WX    TMP DP  RH WIND       PRES   REMARKS
FAYETTEVILLE   SUNNY     70  68  94 CALM      30.08S
TULLAHOMA      PTSUNNY   70  63  78 CALM      30.10S
WINCHESTER     SUNNY     70  64  83 CALM      30.09S
MCMINNVILLE    SUNNY     68  68 100 CALM      30.10R
COLUMBIA       SUNNY     66 N/A N/A CALM      30.06R
SHELBYVILLE    SUNNY     68  66  94 CALM      30.08S
$$

TNZ017-018-042-046-047-241400-
NORTHEAST TENNESSEE

CITY           SKY/WX    TMP DP  RH WIND       PRES   REMARKS
TRI CITIES     MOSUNNY   64  60  87 CALM      30.17R
ELIZABETHTON   SUNNY     64  59  82 CALM      30.18R
$$

TNZ012-013-036-069-073-074-241400-
CENTRAL EAST TENNESSEE

CITY           SKY/WX    TMP DP  RH WIND       PRES   REMARKS
KNOXVILLE      PTSUNNY   69  65  86 E3        30.11R
OAK RIDGE      MOSUNNY   68  65  90 CALM      30.13S
DOWNTOWN KNOXV SUNNY     70  66  88 CALM      30.11S
GATLINBURG     SUNNY     66  63  88 CALM      30.12R
MORRISTOWN     SUNNY     70  61  73 E6        30.12S
JACKSBORO      SUNNY     68  66  94 CALM      30.16S
$$

TNZ083-085-099-241400-
SOUTHEAST TENNESSEE

CITY           SKY/WX    TMP DP  RH WIND       PRES   REMARKS
CHATTANOOGA    FOG       67  67 100 CALM      30.10S VSB<1/4
DAYTON         FOG       66  66 100 CALM      30.10R VSB 0
$$

SKY/WX REPORTED AS FAIR MEANS FEW OR NO CLOUDS BELOW
12 THOUSAND FEET.





USA.gov is the U.S. government's official web portal to all federal, state and local government web resources and services.